Location: *
(49.4500°N, 3.2794°E)
Time: 02:57:49
(UTC+00:00)

Daily predictions for brighter satellites

Satellite Brightness Start Highest point End
(mag) Time Altitude Azimuth Time Altitude Azimuth Time Altitude Azimuth
SJ 16-02 4.2 00:22:59 10° N 00:24:20 15° NNE 00:24:20 15° NNE
USA 267 3.8 00:26:47 10° ENE 00:32:50 53° N 00:32:50 53° N
CZ-2D R/B 4.3 00:29:41 10° NE 00:32:03 19° ENE 00:32:03 19° ENE
Cosmos 2082 Rocket 3.6 00:42:51 10° NNW 00:46:22 35° N 00:46:22 35° N
Cosmos 1844 Rocket 4.1 00:51:05 35° N 00:51:05 35° N 00:54:35 10° NNE
ATLAS CENTAUR R/B 4.1 00:56:16 19° N 00:56:16 19° N 00:58:57 10° NNE
CZ-4C R/B 4.2 00:55:15 10° NW 00:57:58 26° WNW 00:57:58 26° WNW
SL-16 R/B 3.1 01:04:14 55° NNE 01:04:14 55° NNE 01:09:13 10° NNW
Lacrosse 5 3.4 01:23:24 33° NNE 01:23:24 33° NNE 01:27:01 10° ENE
Cosmos 2278 Rocket 2.9 01:33:29 52° NNE 01:33:29 52° NNE 01:37:44 10° NNE
MOS 1-B Rocket 4.2 01:26:05 10° NNE 01:32:19 67° ENE 01:32:19 67° ENE
ADEOS II 3.7 01:31:40 10° NE 01:36:02 26° E 01:36:21 26° E
Lacrosse 5 rocket 3.7 01:46:59 21° ENE 01:46:59 21° ENE 01:48:44 10° E
Resurs 1-4 Rocket 2.7 01:40:06 10° NNE 01:44:07 53° NNE 01:44:07 53° NNE
SME Rocket 4.3 01:38:02 10° NNE 01:45:34 58° E 01:45:41 58° ESE
SL-08 R/B 4.3 02:04:38 41° N 02:04:38 41° N 02:07:43 10° NNW
Cosmos 1943 Rocket 4.0 02:03:09 19° SE 02:04:52 21° E 02:08:57 10° NE
SJ 16-02 3.9 02:00:40 10° NNW 02:01:18 14° NNW 02:01:18 14° NNW
IRS-1D 3.8 02:00:53 10° NNE 02:05:48 71° NE 02:05:48 71° NE
NPP 3.9 02:04:23 10° N 02:08:57 59° NNW 02:08:57 59° NNW
BREEZE-M DEB (TANK) 3.9 02:11:23 53° SSE 02:11:25 53° SSE 02:24:03 10° E
Cosmos 2142 Rocket 4.3 02:06:27 10° N 02:12:37 87° W 02:12:47 85° SSW
ATLAS 5 CENTAUR R/B 2.6 02:14:39 43° N 02:14:39 43° N 02:18:41 10° NE
CZ-2D R/B 2.5 02:09:01 10° N 02:13:22 52° NNW 02:13:22 52° NNW
USA 267 4.1 02:09:19 10° ENE 02:15:32 47° N 02:20:09 18° WNW
Cosmos 2228 Rocket 3.8 02:18:37 50° ENE 02:18:37 50° ENE 02:22:41 10° NNE
Cosmos 1461 4.2 02:20:33 29° N 02:21:51 37° NE 02:25:40 10° ESE
Cosmos 1570 Rocket 4.0 02:22:43 75° N 02:22:43 75° N 02:27:41 10° NNE
IRS-1C 4.0 02:19:00 10° NNE 02:24:22 86° E 02:24:27 85° SE
CZ-2C R/B 4.4 02:22:51 10° NNE 02:26:27 31° E 02:26:38 30° ESE
Cosmos 1933 4.2 02:29:57 47° NE 02:29:57 47° NE 02:33:00 10° NNE
Tsikada Rocket 4.5 02:29:27 43° WNW 02:29:27 43° WNW 02:34:58 10° N
Cosmos 2082 Rocket 4.3 02:27:21 10° NW 02:28:09 14° NW 02:28:09 14° NW
CENTAUR R/B 4.1 02:31:07 19° SSE 02:34:06 27° ESE 02:39:40 10° ENE
ATLAS 5 CENTAUR R/B 3.5 02:36:44 24° ENE 02:36:44 24° ENE 02:38:28 10° NE
ATLAS CENTAUR R/B 4.4 02:34:06 10° NNW 02:36:12 13° N 02:38:16 10° NNE
Cosmos 2297 3.5 02:37:30 72° WSW 02:37:58 78° WNW 02:43:42 10° NNE
BREEZE-M DEB (TANK) 3.5 02:39:30 41° SE 02:39:30 41° SE 02:44:47 10° ESE
Cosmos 1151 Rocket 4.1 02:41:16 35° NNW 02:41:16 35° NNW 02:44:04 10° N
Cosmos 2180 Rocket 4.4 02:33:29 10° N 02:39:55 85° W 02:42:23 40° S
ARIANE 5 R/B 2.4 02:37:03 10° NNE 02:42:14 89° ESE 02:42:46 73° S
Cosmos 972 4.3 02:37:50 10° NNW 02:43:00 86° ENE 02:44:11 53° SSE
IRIDIUM 106 4.4 02:42:04 49° SSE 02:43:27 73° E 02:48:40 10° N
USA 238 DEB 3.7 02:43:42 48° SSW 02:45:42 75° SE 02:52:40 10° NE
USA 238 3.7 02:43:47 48° SSW 02:45:48 74° SE 02:52:47 10° NE
Cosmos 1763 Rocket 3.7 02:45:51 53° WNW 02:45:57 53° WNW 02:51:11 10° NNE
Cosmos 540 Rocket 3.4 02:46:12 68° S 02:46:52 83° ESE 02:52:04 10° NNE
SL-16 R/B 4.0 02:49:20 21° WNW 02:49:20 21° WNW 02:52:10 10° NW
Cosmos 1606 3.1 02:50:04 62° NNE 02:50:04 62° NNE 02:53:23 10° N
CZ-2D R/B 3.5 02:45:29 10° NNE 02:49:29 70° E 02:49:29 70° E
Cosmos 2279 Rocket 4.0 02:44:30 10° NNW 02:50:38 59° W 02:51:39 52° SW
Cosmos 2369 Rocket 3.0 02:51:13 26° SSE 02:53:59 46° ESE 02:59:23 10° NE
SL-4 R/B 2.3 02:57:25 52° ENE 02:57:25 52° ENE 03:00:18 10° E
Meteor 1-20 Rocket 4.0 02:53:49 10° NNW 02:59:18 80° W 03:02:08 30° S
SeaSat 1 4.1 02:55:28 10° NE 02:59:46 29° ESE 03:03:18 14° SSE
IRS-P3 4.5 02:55:26 10° N 03:00:29 44° WNW 03:00:55 43° W
Unknown 3.6 03:02:41 59° E 03:02:41 59° E 03:05:38 10° ENE
Cosmos 1125 Rocket 3.4 02:58:54 10° NNW 03:04:16 90° WSW 03:09:35 10° SSE
Lacrosse 5 3.0 03:02:37 16° NW 03:06:13 40° NNE 03:10:59 10° E
Cosmos 1707 Rocket 4.4 03:04:06 21° SSE 03:06:46 48° E 03:11:01 10° NNE
IDEFIX/ARIANE 42P 3.9 03:01:59 10° NNE 03:06:53 37° E 03:11:44 10° SSE
Cosmos 1814 Rocket 4.1 03:07:10 50° W 03:07:58 56° WNW 03:13:07 10° NNE
Cosmos 1515 Rocket 4.4 03:09:18 34° NW 03:09:18 34° NW 03:12:48 10° N
CZ-4B R/B 3.7 03:11:45 17° NNW 03:11:45 17° NNW 03:12:40 10° NNW
Cosmos 1733 Rocket 4.3 03:11:27 10° N 03:15:43 43° ENE 03:19:58 10° SSE
ADEOS II 2.3 03:10:56 10° N 03:16:02 52° WNW 03:17:17 42° WSW
NOSS 3-3 (C) 4.5 03:09:02 10° NW 03:16:21 58° WSW 03:24:21 10° SSE
Cosmos 2278 Rocket 3.8 03:15:20 19° WNW 03:17:00 21° NW 03:21:15 10° N
Cosmos 1782 2.8 03:17:22 44° S 03:18:34 79° E 03:22:32 10° NNE
COSMOS 2487 3.3 03:15:17 10° NNW 03:18:42 51° ENE 03:22:06 10° SE
Falcon 9 debris 3.1 03:18:40 74° NNW 03:18:43 75° NNW 03:22:13 10° ENE
Cosmos 372 Rocket 4.3 03:14:08 10° NW 03:19:04 42° WSW 03:19:11 42° WSW
Cosmos 1602 3.7 03:17:05 10° N 03:21:02 90° NNW 03:23:24 23° S
Meteor 1-28 Rocket 3.1 03:21:34 63° WSW 03:21:36 63° W 03:25:21 10° NNW
USA 215 4.5 03:15:51 10° ENE 03:21:41 33° SE 03:26:57 12° S
Lacrosse 5 rocket 1.2 03:22:43 38° WNW 03:24:15 76° SW 03:28:37 10° SE
Resurs 1-4 Rocket 3.7 03:21:03 10° NNW 03:24:37 19° NW 03:25:11 18° WNW
Unknown 4.0 03:24:26 41° S 03:25:11 48° SSE 03:28:57 10° ENE
Nadezhda 4 Rocket 3.9 03:23:21 23° SSW 03:27:19 75° WNW 03:33:27 10° N
BREEZE-M DEB (TANK) 4.0 03:13:57 10° W 03:27:21 89° S 03:31:14 10° E
Cosmos 2344 3.6 03:23:38 28° SW 03:28:02 88° NW 03:36:35 10° NE
Cosmos 1400 Rocket 3.7 03:27:09 13° SSE 03:30:30 47° E 03:34:16 10° NNE
NOSS 3-2 (A) 3.4 03:28:31 33° SW 03:31:26 76° NW 03:38:13 10° NE
Unknown 3.6 03:31:30 44° SSW 03:32:24 59° SSE 03:36:12 10° ENE
NOSS 3-2 (C) 3.5 03:29:59 28° SW 03:33:21 82° SE 03:40:06 10° NE
Unknown 3.3 03:34:03 50° W 03:34:48 68° NNW 03:38:20 10° ENE
Cosmos 841 Rocket 4.2 03:33:39 30° W 03:35:07 36° WNW 03:39:56 10° N
Cosmos 1869 Rocket 4.0 03:33:13 10° NNW 03:37:26 40° W 03:38:27 35° SW
BREEZE-M DEB (TANK) 3.9 03:37:56 24° SSW 03:40:18 38° SSE 03:42:59 10° E
ATLAS 3B R/B 2.8 03:35:32 20° SSW 03:40:23 71° SE 03:46:58 10° NE
Cosmos 2084 4.3 03:39:06 29° W 03:40:41 40° NW 03:44:52 10° NE
PSLV R/B 3.8 03:36:37 10° S 03:40:46 78° WSW 03:44:55 10° NNW
Cosmos 1943 Rocket 2.1 03:44:42 24° SW 03:48:03 69° WNW 03:53:38 10° NNE
Cosmos 44 4.2 03:43:39 12° S 03:48:07 45° ESE 03:52:43 10° NE
Meteor 1-14 Rocket 4.5 03:43:08 10° NNW 03:48:21 43° W 03:53:33 10° SSW
Cosmos 1536 4.3 03:44:47 10° N 03:48:33 39° ENE 03:52:18 10° SE
Unknown 4.1 03:47:30 26° SSW 03:49:26 50° SSE 03:53:22 10° ENE
Unknown 4.3 03:48:06 24° SSW 03:50:12 45° SE 03:54:08 10° ENE
Unknown 4.5 03:48:41 22° SSW 03:50:55 42° SE 03:54:51 10° ENE
Timation 2 Rocket 4.0 03:46:26 10° NNW 03:52:33 81° ENE 03:58:31 10° SSE
Unknown 4.4 03:50:19 22° SSW 03:52:37 43° SE 03:56:34 10° ENE
CZ-2D R/B 4.1 03:51:18 10° NNW 03:53:16 12° NW 03:54:41 11° WNW
Unknown 3.8 03:53:30 24° NW 03:54:44 37° N 03:57:27 10° ENE
Unknown 4.4 03:53:31 21° SSW 03:55:55 45° SE 03:59:54 10° ENE
USA 102 4.1 03:52:00 10° NNE 03:56:57 86° ESE 03:59:30 23° SSW
Unknown 4.2 03:55:28 22° SW 03:57:52 51° SSE 04:01:54 10° ENE
USA 267 3.5 03:51:36 10° ESE 03:58:06 72° NNE 04:04:38 10° WNW
Iridium 4 Rocket 3.0 03:54:02 10° S 03:58:37 71° W 04:02:56 10° N
Cosmos 1346 Rocket 3.7 03:54:44 10° N 03:58:46 54° ENE 04:02:47 10° SSE
Cosmos 2263 4.1 03:54:15 15° SSW 03:58:58 85° WNW 04:04:38 10° NNE
FALCON 9 DEB 3.6 03:57:28 26° W 03:59:11 54° NNW 04:02:40 10° ENE
Unknown 4.1 03:57:00 21° SW 03:59:28 52° SSE 04:03:31 10° ENE
ATLAS 5 CENTAUR R/B 3.8 03:56:12 10° WNW 03:59:44 20° NNW 04:03:35 10° NE
Unknown 4.2 03:57:19 21° SSW 03:59:50 49° SSE 04:03:51 10° ENE
CZ-2C R/B 3.9 03:57:23 10° N 04:00:49 28° WNW 04:02:02 23° W
Cosmos 1461 3.5 03:57:17 10° NW 04:00:55 32° WSW 04:04:36 10° S
Meteor 1-5 Rocket 4.1 03:56:10 10° NNW 04:01:35 86° W 04:07:09 10° S
Unknown 4.2 03:59:55 20° SW 04:02:34 50° SSE 04:06:35 10° ENE
ADEOS 3.5 04:00:25 10° N 04:05:37 68° WNW 04:10:48 10° SSW
Unknown 4.1 04:03:06 19° SW 04:05:52 52° SSE 04:09:54 10° ENE
Unknown 3.7 04:04:08 22° WNW 04:06:06 50° N 04:09:30 10° ENE
Cosmos 2026 Rocket 4.0 04:00:32 10° SSW 04:06:48 81° W 04:13:13 10° N
Unknown 4.1 04:04:42 18° SW 04:07:32 53° SSE 04:11:35 10° ENE
Unknown 3.9 04:06:04 18° WNW 04:08:09 42° N 04:11:15 10° ENE
Unknown 4.1 04:06:18 18° SW 04:09:11 55° SSE 04:13:15 10° ENE
Unknown 4.0 04:07:53 18° SW 04:10:49 56° SSE 04:14:53 10° ENE
Unknown 3.4 04:09:59 22° WSW 04:12:20 73° NNW 04:16:05 10° ENE
Cosmos 1862 Rocket 3.5 04:09:43 10° SSW 04:14:12 82° W 04:18:43 10° N
ATLAS CENTAUR R/B 4.1 04:13:36 10° NNW 04:16:58 19° NNE 04:20:10 10° ENE
Unknown 3.9 04:14:17 16° SW 04:17:28 61° SSE 04:21:35 10° ENE
Cosmos 1340 2.7 04:14:59 10° N 04:18:48 83° ENE 04:22:35 10° SSE
Unknown 3.9 04:15:53 16° SW 04:19:08 63° SSE 04:23:14 10° ENE
ARIANE 5 R/B 4.2 04:17:26 10° NNW 04:20:39 17° NW 04:23:06 12° W
Unknown 3.9 04:17:29 15° SW 04:20:48 64° SSE 04:24:55 10° ENE
Unknown 3.8 04:19:04 15° SW 04:22:27 66° SSE 04:26:34 10° ENE
CENTAUR R/B 2.7 04:18:19 12° SW 04:24:01 75° NW 04:31:18 10° NE
Unknown 3.8 04:20:40 14° SW 04:24:06 67° SSE 04:28:14 10° ENE
Aureole 2 Rocket 3.3 04:22:34 10° S 04:25:05 36° ESE 04:27:35 10° NE
Cosmos 2219 4.4 04:20:57 10° NNW 04:26:29 47° NE 04:31:55 10° SE
SJ-6F 4.5 04:22:19 10° NNE 04:26:32 90° ESE 04:30:44 10° SSW
S3M 4.0 04:20:24 10° N 04:26:36 89° E 04:32:50 10° S
Unknown 3.8 04:23:50 14° SW 04:27:24 70° SSE 04:31:32 10° ENE
Cosmos 2227 Rocket 4.1 04:23:19 10° NNW 04:28:26 33° NE 04:33:31 10° ESE
Starlink (trailer) 3.8 04:25:27 13° SW 04:29:03 71° SSE 04:33:12 10° ENE
Unknown 3.7 04:27:04 13° SW 04:30:45 73° SSE 04:34:54 10° ENE
Unknown 3.7 04:28:40 12° WSW 04:32:24 74° SSE 04:36:34 10° ENE
H-2A R/B 2.7 04:31:00 10° N 04:34:39 41° WNW 04:38:15 10° SW
CZ-2C R/B 2.4 04:30:58 10° NNE 04:35:50 88° WNW 04:40:50 10° SSW
SL-4 R/B 2.1 04:33:03 11° WNW 04:36:17 43° SSW 04:39:46 10° SE
Meteor 1-27 Rocket 3.8 04:30:24 10° SSW 04:36:18 78° WNW 04:42:08 10° N
COSMO-SKYMED 1 3.3 04:32:13 10° SSE 04:36:29 59° ENE 04:40:46 10° N
USA 238 DEB 4.5 04:31:09 11° W 04:37:14 39° NNW 04:43:48 10° NE
USA 238 4.5 04:31:14 11° W 04:37:19 40° NNW 04:43:55 10° NE
SeaSat 1 2.7 04:32:42 10° NNE 04:37:29 51° NW 04:42:14 10° SW
Cosmos 2369 Rocket 2.9 04:33:02 11° WSW 04:38:09 37° NW 04:43:25 10° NNE
Unknown 3.7 04:35:03 11° WSW 04:39:03 80° SSE 04:43:13 10° ENE
Unknown 3.9 04:36:10 10° W 04:39:33 46° N 04:42:58 10° ENE
Cosmos 2297 Rocket 3.7 04:34:29 10° NNW 04:39:48 39° NE 04:45:05 10° ESE
Okean 1-7 3.8 04:35:53 10° S 04:40:12 59° E 04:44:33 10° NNE
Unknown 3.7 04:36:40 11° WSW 04:40:44 82° SSE 04:44:53 10° ENE
Unknown 3.7 04:37:22 10° WSW 04:41:27 83° SSE 04:45:37 10° ENE
PAYLOAD A 3.8 04:36:40 10° N 04:41:28 65° WNW 04:46:07 10° SSW
Cosmos 1908 Rocket 3.5 04:37:18 10° NNW 04:41:37 65° W 04:45:54 10° S
Cosmos 2084 Rocket 3.5 04:38:34 10° NW 04:42:56 61° SW 04:47:13 10° SSE
Unknown 3.7 04:39:52 10° WSW 04:44:01 85° SSE 04:48:11 10° ENE
Okean O Rocket 3.6 04:40:31 10° NNE 04:44:34 33° E 04:48:37 10° SSE
Meteor 1-11 Rocket 4.0 04:40:17 10° NNW 04:45:37 44° W 04:50:50 10° SSW
Unknown 3.6 04:41:38 10° WSW 04:45:47 88° SSE 04:49:57 10° ENE
Cosmos 1315 Rocket 2.9 04:42:01 10° SSW 04:46:07 63° WNW 04:50:15 10° N
IDEFIX/ARIANE 42P 3.2 04:41:39 10° N 04:46:28 37° WNW 04:51:16 10° SW
Unknown 3.7 04:42:47 10° WSW 04:46:57 87° SSE 04:51:07 10° ENE
Unknown 3.6 04:44:55 10° WSW 04:49:05 89° N 04:53:15 10° ENE
Cosmos 1500 3.9 04:46:10 10° NNW 04:49:31 32° W 04:52:53 10° SSW
Lacrosse 5 1.9 04:44:31 10° WNW 04:49:36 86° SW 04:54:41 10° SE
Cosmos 1656 Rocket 3.8 04:44:09 10° SW 04:49:47 60° WNW 04:55:23 10° NNE
Unknown 3.6 04:46:31 10° WSW 04:50:41 90° NNE 04:54:50 10° ENE
Unknown 3.6 04:47:16 10° WSW 04:51:25 89° NW 04:55:36 10° ENE
Cosmos 1733 Rocket 4.3 04:49:48 10° NW 04:53:15 22° W 04:56:41 10° SW
COSMOS 2487 4.2 04:51:46 10° WNW 04:53:25 13° W 04:55:04 10° SW
Unknown 3.6 04:49:47 10° WSW 04:53:56 89° NNW 04:58:06 10° ENE
ADEOS II 4.1 04:53:50 10° NW 04:54:35 10° NW 04:55:20 10° WNW
Helios 1A Rocket 4.0 04:50:44 10° NNE 04:54:42 51° E 04:58:41 10° S
Cosmos 44 Rocket 4.4 04:51:21 10° SSW 04:56:10 47° ESE 05:00:53 10° NE
